Location: Lanoux
(43.1180°N, 1.4255°E)
Time: 15:18:20
(UTC+00:00)

Tiangong - Pass Details

Date: 22 February 2026
Orbit: 382 x 391 km, 41.5° (Epoch: 5 March)

Event Time Altitude Azimuth Distance (km) Brightness Sun altitude
Rises 18:08:06 0° 273° (W) 2,260 3.9 -6.9°
Reaches altitude 10° 18:10:30 10° 256° (WSW) 1,402 2.4 -7.3°
Maximum altitude 18:12:55 20° 206° (SSW) 941 0.3 -7.7°
Drops below altitude 10° 18:15:20 10° 155° (SSE) 1,393 0.5 -8.2°
Enters shadow 18:17:38 - 139° (SE) 2,212 1.4 -8.6°
